Time,TemperatureF,DewpointF,PressureIn,WindDirection,WindDirectionDegrees,WindSpeedMPH,WindSpeedGustMPH,Humidity,HourlyPrecipIn,Conditions,Clouds,dailyrainin,SoftwareType,DateUTC
2013-06-07 00:01:00,55.7,50.9,29.86,South,177,0.0,0.0,84,0.06,RA,,0.00,WeatherDisplay:10.37,2013-06-07 04:01:00,
2013-06-07 00:02:00,55.7,50.9,29.86,South,177,0.0,0.0,84,0.06,RA,,0.00,WeatherDisplay:10.37,2013-06-07 04:02:00,
2013-06-07 00:03:00,55.7,50.9,29.86,SW,235,1.1,1.1,84,0.05,RA,,0.00,WeatherDisplay:10.37,2013-06-07 04:03:00,
2013-06-07 00:08:00,55.6,50.8,29.86,SE,144,1.1,1.1,84,0.05,RA,,0.00,WeatherDisplay:10.37,2013-06-07 04:08:00,
2013-06-07 00:13:00,55.5,50.7,29.85,ESE,107,1.1,1.1,84,0.05,,,0.00,WeatherDisplay:10.37,2013-06-07 04:13:00,
2013-06-07 00:18:00,55.5,50.7,29.85,East,88,3.0,3.0,84,0.04,,,0.00,WeatherDisplay:10.37,2013-06-07 04:18:00,
2013-06-07 00:23:00,55.5,50.7,29.85,West,263,2.3,0.0,84,0.03,,,0.00,WeatherDisplay:10.37,2013-06-07 04:23:00,
2013-06-07 00:28:00,55.5,50.7,29.85,WSW,256,1.1,0.0,84,0.02,,,0.00,WeatherDisplay:10.37,2013-06-07 04:28:00,
2013-06-07 00:33:00,55.5,50.7,29.85,ESE,120,1.1,0.0,84,0.02,,,0.00,WeatherDisplay:10.37,2013-06-07 04:33:00,
2013-06-07 00:38:00,55.5,50.7,29.85,NE,49,1.1,0.0,84,0.02,,,0.00,WeatherDisplay:10.37,2013-06-07 04:38:00,
2013-06-07 00:43:00,55.5,50.7,29.85,SW,219,0.0,0.0,84,0.01,,,0.00,WeatherDisplay:10.37,2013-06-07 04:43:00,
2013-06-07 00:49:00,55.5,50.7,29.85,SE,138,0.0,0.0,84,0.01,,,0.00,WeatherDisplay:10.37,2013-06-07 04:49:00,
2013-06-07 00:54:00,55.5,50.7,29.85,East,90,1.1,0.0,84,0.01,,,0.00,WeatherDisplay:10.37,2013-06-07 04:54:00,
2013-06-07 00:59:00,55.5,50.7,29.85,East,90,0.0,0.0,84,0.01,,,0.00,WeatherDisplay:10.37,2013-06-07 04:59:00,
2013-06-07 01:04:00,55.5,50.7,29.85,East,90,0.0,0.0,84,0.00,,,0.00,WeatherDisplay:10.37,2013-06-07 05:04:00,
2013-06-07 01:09:00,55.6,50.8,29.85,ESE,115,1.1,0.0,84,0.00,,,0.00,WeatherDisplay:10.37,2013-06-07 05:09:00,
2013-06-07 01:14:00,55.6,50.8,29.85,SSW,204,0.0,0.0,84,0.01,RA,,0.01,WeatherDisplay:10.37,2013-06-07 05:14:00,
2013-06-07 01:19:00,55.6,50.8,29.85,West,274,1.0,1.0,84,0.05,RA,,0.06,WeatherDisplay:10.37,2013-06-07 05:19:00,
2013-06-07 01:24:00,55.6,50.8,29.85,SW,224,1.1,0.0,84,0.08,RA,,0.09,WeatherDisplay:10.37,2013-06-07 05:24:00,
2013-06-07 01:29:00,55.7,50.9,29.85,SW,224,0.0,0.0,84,0.11,RA,,0.12,WeatherDisplay:10.37,2013-06-07 05:29:00,
2013-06-07 01:34:00,55.8,51.0,29.84,SSE,149,1.1,0.0,84,0.14,RA,,0.15,WeatherDisplay:10.37,2013-06-07 05:34:00,
2013-06-07 01:39:00,55.8,51.0,29.84,SSE,149,0.0,0.0,84,0.16,RA,,0.16,WeatherDisplay:10.37,2013-06-07 05:39:00,
2013-06-07 01:44:00,55.8,51.0,29.84,NNW,345,0.0,0.0,84,0.17,RA,,0.17,WeatherDisplay:10.37,2013-06-07 05:44:00,
2013-06-07 01:49:00,55.9,51.1,29.84,NW,313,0.0,0.0,84,0.18,RA,,0.18,WeatherDisplay:10.37,2013-06-07 05:49:00,
2013-06-07 01:54:00,56.0,51.2,29.84,NW,313,0.0,0.0,84,0.18,RA,,0.18,WeatherDisplay:10.37,2013-06-07 05:54:00,
2013-06-07 01:59:00,56.0,51.2,29.85,NW,313,0.0,0.0,84,0.19,RA,,0.19,WeatherDisplay:10.37,2013-06-07 05:59:00,
2013-06-07 02:04:00,56.1,51.3,29.85,NW,313,0.0,0.0,84,0.21,RA,,0.21,WeatherDisplay:10.37,2013-06-07 06:04:00,
2013-06-07 02:09:00,56.1,51.3,29.84,NW,314,0.0,0.0,84,0.22,RA,,0.22,WeatherDisplay:10.37,2013-06-07 06:09:00,
2013-06-07 02:14:00,56.1,51.3,29.84,NW,313,0.0,0.0,84,0.22,RA,,0.23,WeatherDisplay:10.37,2013-06-07 06:14:00,
2013-06-07 02:19:00,56.1,51.3,29.84,NW,313,0.0,0.0,84,0.18,RA,,0.23,WeatherDisplay:10.37,2013-06-07 06:19:00,
2013-06-07 02:24:00,56.0,51.2,29.83,NW,313,0.0,0.0,84,0.15,,,0.23,WeatherDisplay:10.37,2013-06-07 06:24:00,
2013-06-07 02:29:00,56.2,51.4,29.84,NW,313,0.0,0.0,84,0.12,,,0.23,WeatherDisplay:10.37,2013-06-07 06:29:00,
2013-06-07 02:34:00,56.3,51.5,29.84,WSW,251,1.1,1.1,84,0.09,,,0.23,WeatherDisplay:10.37,2013-06-07 06:34:00,
2013-06-07 02:39:00,56.5,51.7,29.83,SW,233,1.1,1.1,84,0.07,,,0.23,WeatherDisplay:10.37,2013-06-07 06:39:00,
2013-06-07 02:44:00,56.7,52.2,29.83,SW,233,0.0,0.0,85,0.06,,,0.23,WeatherDisplay:10.37,2013-06-07 06:44:00,
2013-06-07 02:49:00,56.7,52.2,29.83,SE,139,0.0,0.0,85,0.05,,,0.23,WeatherDisplay:10.37,2013-06-07 06:49:00,
2013-06-07 02:54:00,56.7,52.2,29.83,SSE,150,0.0,0.0,85,0.06,RA,,0.24,WeatherDisplay:10.37,2013-06-07 06:54:00,
2013-06-07 02:59:00,56.8,52.0,29.83,SSW,200,0.0,0.0,84,0.05,RA,,0.24,WeatherDisplay:10.37,2013-06-07 06:59:00,
2013-06-07 03:04:00,56.8,52.0,29.83,SW,217,0.0,0.0,84,0.03,,,0.24,WeatherDisplay:10.37,2013-06-07 07:04:00,
2013-06-07 03:09:00,56.9,52.1,29.83,SE,124,0.0,0.0,84,0.02,,,0.24,WeatherDisplay:10.37,2013-06-07 07:09:00,
2013-06-07 03:14:00,56.9,52.1,29.83,SE,124,0.0,0.0,84,0.01,,,0.24,WeatherDisplay:10.37,2013-06-07 07:14:00,
2013-06-07 03:19:00,56.8,52.0,29.83,SE,124,0.0,0.0,84,0.02,RA,,0.25,WeatherDisplay:10.37,2013-06-07 07:19:00,
2013-06-07 03:24:00,56.8,52.0,29.83,SE,124,0.0,0.0,84,0.03,RA,,0.26,WeatherDisplay:10.37,2013-06-07 07:24:00,
2013-06-07 03:29:00,56.8,52.0,29.83,SE,124,0.0,0.0,84,0.04,RA,,0.27,WeatherDisplay:10.37,2013-06-07 07:29:00,
2013-06-07 03:34:00,56.8,52.0,29.83,SE,124,0.0,0.0,84,0.05,RA,,0.29,WeatherDisplay:10.37,2013-06-07 07:34:00,
2013-06-07 03:39:00,56.9,52.1,29.83,SE,124,0.0,0.0,84,0.07,RA,,0.30,WeatherDisplay:10.37,2013-06-07 07:39:00,
2013-06-07 03:44:00,56.9,52.1,29.83,SE,124,0.0,0.0,84,0.07,RA,,0.30,WeatherDisplay:10.37,2013-06-07 07:44:00,
2013-06-07 03:49:00,57.0,52.2,29.83,SE,124,0.0,0.0,84,0.09,RA,,0.32,WeatherDisplay:10.37,2013-06-07 07:49:00,
2013-06-07 03:54:00,57.0,52.2,29.83,SE,124,0.0,0.0,84,0.09,RA,,0.33,WeatherDisplay:10.37,2013-06-07 07:54:00,
2013-06-07 03:59:00,57.1,52.3,29.83,SE,124,0.0,0.0,84,0.10,RA,,0.34,WeatherDisplay:10.37,2013-06-07 07:59:00,
2013-06-07 04:04:00,57.2,52.4,29.83,SE,124,0.0,0.0,84,0.11,RA,,0.35,WeatherDisplay:10.37,2013-06-07 08:04:00,
2013-06-07 04:09:00,57.2,52.4,29.83,SE,124,0.0,0.0,84,0.11,RA,,0.35,WeatherDisplay:10.37,2013-06-07 08:09:00,
2013-06-07 04:14:00,57.3,52.5,29.83,SE,124,0.0,0.0,84,0.11,,,0.35,WeatherDisplay:10.37,2013-06-07 08:14:00,
2013-06-07 04:19:00,57.3,52.5,29.83,SE,124,0.0,0.0,84,0.10,,,0.35,WeatherDisplay:10.37,2013-06-07 08:19:00,
2013-06-07 04:24:00,57.4,52.6,29.83,SE,124,0.0,0.0,84,0.10,RA,,0.36,WeatherDisplay:10.37,2013-06-07 08:24:00,
2013-06-07 04:29:00,57.4,52.6,29.83,SE,124,0.0,0.0,84,0.09,RA,,0.36,WeatherDisplay:10.37,2013-06-07 08:29:00,
2013-06-07 04:34:00,57.4,52.6,29.83,SE,124,0.0,0.0,84,0.07,,,0.36,WeatherDisplay:10.37,2013-06-07 08:34:00,
2013-06-07 04:39:00,57.4,52.6,29.83,SE,124,0.0,0.0,84,0.06,,,0.36,WeatherDisplay:10.37,2013-06-07 08:39:00,
2013-06-07 04:44:00,57.5,52.7,29.83,SE,124,0.0,0.0,84,0.07,RA,,0.37,WeatherDisplay:10.37,2013-06-07 08:44:00,
2013-06-07 04:49:00,57.5,52.7,29.83,SE,124,0.0,0.0,84,0.05,RA,,0.37,WeatherDisplay:10.37,2013-06-07 08:49:00,
2013-06-07 04:54:00,57.5,52.7,29.83,SE,124,0.0,0.0,84,0.05,RA,,0.38,WeatherDisplay:10.37,2013-06-07 08:54:00,
2013-06-07 04:59:00,57.5,52.7,29.83,SE,124,0.0,0.0,84,0.04,RA,,0.38,WeatherDisplay:10.37,2013-06-07 08:59:00,
2013-06-07 05:04:00,57.5,52.7,29.83,SE,124,0.0,0.0,84,0.03,CLR,,0.38,WeatherDisplay:10.37,2013-06-07 09:04:00,
2013-06-07 05:09:00,57.6,52.8,29.83,SE,124,0.0,0.0,84,0.03,CLR,,0.38,WeatherDisplay:10.37,2013-06-07 09:09:00,
2013-06-07 05:14:00,57.7,52.9,29.83,SE,124,0.0,0.0,84,0.03,CLR,,0.38,WeatherDisplay:10.37,2013-06-07 09:14:00,
2013-06-07 05:19:00,57.7,52.9,29.83,SE,124,0.0,0.0,84,0.03,CLR,,0.38,WeatherDisplay:10.37,2013-06-07 09:19:00,
2013-06-07 05:24:00,57.8,53.0,29.83,SE,124,0.0,0.0,84,0.02,CLR,,0.38,WeatherDisplay:10.37,2013-06-07 09:24:00,
2013-06-07 05:29:00,57.8,53.0,29.83,SE,124,0.0,0.0,84,0.02,CLR,,0.38,WeatherDisplay:10.37,2013-06-07 09:29:00,
2013-06-07 05:34:00,57.9,53.1,29.83,SE,124,0.0,0.0,84,0.02,CLR,,0.38,WeatherDisplay:10.37,2013-06-07 09:34:00,
2013-06-07 05:39:00,57.9,53.1,29.83,SE,124,0.0,0.0,84,0.03,RA,,0.39,WeatherDisplay:10.37,2013-06-07 09:39:00,
2013-06-07 05:44:00,57.9,53.1,29.83,SE,124,0.0,0.0,84,0.02,RA,,0.39,WeatherDisplay:10.37,2013-06-07 09:44:00,
2013-06-07 05:49:00,57.9,53.1,29.83,SE,124,0.0,0.0,84,0.02,CLR,,0.39,WeatherDisplay:10.37,2013-06-07 09:49:00,
2013-06-07 05:54:00,57.9,53.1,29.83,SE,124,0.0,0.0,84,0.01,CLR,,0.39,WeatherDisplay:10.37,2013-06-07 09:54:00,
2013-06-07 05:59:00,58.0,53.2,29.84,South,177,0.0,0.0,84,0.01,CLR,,0.39,WeatherDisplay:10.37,2013-06-07 09:59:00,
2013-06-07 06:04:00,58.0,53.2,29.84,South,177,0.0,0.0,84,0.02,RA,,0.40,WeatherDisplay:10.37,2013-06-07 10:04:00,
2013-06-07 06:09:00,58.1,53.3,29.84,South,177,0.0,0.0,84,0.02,RA,,0.40,WeatherDisplay:10.37,2013-06-07 10:09:00,
2013-06-07 06:14:00,58.1,53.3,29.83,South,177,0.0,0.0,84,0.02,CLR,,0.40,WeatherDisplay:10.37,2013-06-07 10:14:00,
2013-06-07 06:19:00,58.2,53.4,29.83,South,177,0.0,0.0,84,0.02,CLR,,0.40,WeatherDisplay:10.37,2013-06-07 10:19:00,
2013-06-07 06:24:00,58.3,53.5,29.83,South,177,0.0,0.0,84,0.02,CLR,,0.40,WeatherDisplay:10.37,2013-06-07 10:24:00,
2013-06-07 06:29:00,58.3,53.8,29.83,South,177,0.0,0.0,85,0.02,CLR,,0.40,WeatherDisplay:10.37,2013-06-07 10:29:00,
2013-06-07 06:34:00,58.4,53.6,29.83,South,177,0.0,0.0,84,0.02,CLR,,0.40,WeatherDisplay:10.37,2013-06-07 10:34:00,
2013-06-07 06:39:00,58.4,53.6,29.83,NE,53,2.0,2.0,84,0.01,CLR,,0.40,WeatherDisplay:10.37,2013-06-07 10:39:00,
2013-06-07 06:44:00,58.6,54.1,29.83,NNE,33,0.0,0.0,85,0.01,CLR,,0.40,WeatherDisplay:10.37,2013-06-07 10:44:00,
2013-06-07 06:49:00,58.9,54.4,29.83,West,271,2.3,2.3,85,0.01,CLR,,0.40,WeatherDisplay:10.37,2013-06-07 10:49:00,
2013-06-07 06:54:00,59.2,54.7,29.83,SSE,160,0.0,0.0,85,0.01,CLR,,0.40,WeatherDisplay:10.37,2013-06-07 10:54:00,
2013-06-07 06:59:00,59.3,54.8,29.83,ESE,111,1.1,1.1,85,0.01,CLR,,0.40,WeatherDisplay:10.37,2013-06-07 10:59:00,
2013-06-07 07:04:00,59.5,55.0,29.83,North,352,0.0,0.0,85,0.00,CLR,,0.40,WeatherDisplay:10.37,2013-06-07 11:04:00,
2013-06-07 07:10:00,59.5,55.0,29.83,ENE,73,0.0,0.0,85,0.00,CLR,,0.40,WeatherDisplay:10.37,2013-06-07 11:10:00,
2013-06-07 07:15:00,59.6,55.1,29.83,East,80,0.0,0.0,85,0.00,CLR,,0.40,WeatherDisplay:10.37,2013-06-07 11:15:00,
2013-06-07 07:20:00,59.6,55.1,29.84,SE,145,0.0,0.0,85,0.00,CLR,,0.40,WeatherDisplay:10.37,2013-06-07 11:20:00,
2013-06-07 07:25:00,59.7,55.2,29.83,South,186,1.1,1.1,85,0.00,CLR,,0.40,WeatherDisplay:10.37,2013-06-07 11:25:00,
2013-06-07 07:30:00,59.7,55.2,29.84,SSW,211,0.0,0.0,85,0.00,CLR,,0.40,WeatherDisplay:10.37,2013-06-07 11:30:00,
2013-06-07 07:35:00,59.8,55.3,29.83,SSW,210,0.0,0.0,85,0.00,CLR,,0.40,WeatherDisplay:10.37,2013-06-07 11:35:00,
2013-06-07 07:40:00,59.9,55.4,29.83,SW,229,0.0,0.5,85,0.00,CLR,,0.40,WeatherDisplay:10.37,2013-06-07 11:40:00,
2013-06-07 07:45:00,60.0,55.5,29.83,SE,124,0.0,0.0,85,0.00,CLR,,0.40,WeatherDisplay:10.37,2013-06-07 11:45:00,
2013-06-07 07:50:00,60.0,55.5,29.83,SSE,156,1.1,0.0,85,0.00,CLR,,0.40,WeatherDisplay:10.37,2013-06-07 11:50:00,
2013-06-07 07:55:00,60.0,55.2,29.84,SSE,155,0.0,0.0,84,0.00,CLR,,0.40,WeatherDisplay:10.37,2013-06-07 11:55:00,
2013-06-07 08:00:00,60.0,55.2,29.84,WSW,239,0.0,0.0,84,0.00,CLR,,0.40,WeatherDisplay:10.37,2013-06-07 12:00:00,
2013-06-07 08:05:00,60.2,55.3,29.84,West,281,0.0,0.0,84,0.00,CLR,,0.40,WeatherDisplay:10.37,2013-06-07 12:05:00,
2013-06-07 08:10:00,60.3,55.4,29.84,NNE,15,0.0,0.0,84,0.00,CLR,,0.40,WeatherDisplay:10.37,2013-06-07 12:10:00,
2013-06-07 08:15:00,60.4,55.5,29.84,NNE,15,0.0,0.1,84,0.00,CLR,,0.40,WeatherDisplay:10.37,2013-06-07 12:15:00,
2013-06-07 08:20:00,60.6,56.1,29.84,SSE,168,0.0,0.0,85,0.00,CLR,,0.40,WeatherDisplay:10.37,2013-06-07 12:20:00,
2013-06-07 08:25:00,60.7,56.2,29.84,WSW,240,0.0,0.0,85,0.00,CLR,,0.40,WeatherDisplay:10.37,2013-06-07 12:25:00,
2013-06-07 08:30:00,60.9,56.4,29.84,SW,218,0.0,0.0,85,0.00,CLR,,0.40,WeatherDisplay:10.37,2013-06-07 12:30:00,
2013-06-07 08:35:00,61.1,56.6,29.84,SW,218,0.0,0.0,85,0.00,CLR,,0.40,WeatherDisplay:10.37,2013-06-07 12:35:00,
2013-06-07 08:40:00,61.1,56.6,29.84,NNW,333,0.0,0.2,85,0.00,CLR,,0.40,WeatherDisplay:10.37,2013-06-07 12:40:00,
2013-06-07 08:45:00,61.3,56.4,29.84,NNW,333,0.0,0.0,84,0.00,CLR,,0.40,WeatherDisplay:10.37,2013-06-07 12:45:00,
2013-06-07 08:50:00,61.4,56.5,29.84,SSE,153,0.0,0.0,84,0.00,CLR,,0.40,WeatherDisplay:10.37,2013-06-07 12:50:00,
2013-06-07 08:56:00,61.5,56.6,29.84,SE,132,0.0,0.5,84,0.00,CLR,,0.40,WeatherDisplay:10.37,2013-06-07 12:56:00,
2013-06-07 09:01:00,61.6,56.7,29.84,ESE,123,0.0,0.0,84,0.00,CLR,,0.40,WeatherDisplay:10.37,2013-06-07 13:01:00,
2013-06-07 09:06:00,61.6,56.7,29.84,SSW,207,1.1,0.0,84,0.00,CLR,,0.40,WeatherDisplay:10.37,2013-06-07 13:06:00,
2013-06-07 09:11:00,61.7,56.8,29.84,ESE,122,0.0,0.0,84,0.00,CLR,,0.40,WeatherDisplay:10.37,2013-06-07 13:11:00,
2013-06-07 09:16:00,61.7,56.8,29.84,ENE,64,0.0,0.0,84,0.00,CLR,,0.40,WeatherDisplay:10.37,2013-06-07 13:16:00,
2013-06-07 09:21:00,61.7,56.5,29.84,SE,145,0.0,0.0,83,0.00,CLR,,0.40,WeatherDisplay:10.37,2013-06-07 13:21:00,
2013-06-07 09:26:00,62.0,56.8,29.84,SE,145,0.0,0.0,83,0.00,CLR,,0.40,WeatherDisplay:10.37,2013-06-07 13:26:00,
2013-06-07 09:31:00,62.4,57.5,29.84,SE,124,0.0,0.0,84,0.00,CLR,,0.40,WeatherDisplay:10.37,2013-06-07 13:31:00,
2013-06-07 09:36:00,62.6,57.7,29.84,NNE,32,0.0,0.0,84,0.00,CLR,,0.40,WeatherDisplay:10.37,2013-06-07 13:36:00,
2013-06-07 09:41:00,62.9,58.0,29.83,NE,34,1.0,1.0,84,0.00,CLR,,0.40,WeatherDisplay:10.37,2013-06-07 13:41:00,
2013-06-07 09:46:00,62.9,57.7,29.83,SE,143,1.1,0.0,83,0.00,CLR,,0.40,WeatherDisplay:10.37,2013-06-07 13:46:00,
2013-06-07 09:51:00,62.9,57.7,29.83,East,94,1.1,1.1,83,0.00,CLR,,0.40,WeatherDisplay:10.37,2013-06-07 13:51:00,
2013-06-07 09:56:00,62.9,57.7,29.83,NW,323,2.3,2.3,83,0.00,CLR,,0.40,WeatherDisplay:10.37,2013-06-07 13:56:00,
2013-06-07 10:01:00,63.0,57.8,29.84,SSW,194,0.0,0.0,83,0.00,CLR,,0.40,WeatherDisplay:10.37,2013-06-07 14:01:00,
2013-06-07 10:06:00,63.2,57.9,29.84,SW,231,1.0,1.0,83,0.00,CLR,,0.40,WeatherDisplay:10.37,2013-06-07 14:06:00,
2013-06-07 10:12:00,63.2,57.9,29.84,SE,145,1.1,1.1,83,0.00,CLR,,0.40,WeatherDisplay:10.37,2013-06-07 14:12:00,
2013-06-07 10:17:00,63.2,57.9,29.84,SSW,192,2.0,2.0,83,0.00,CLR,,0.40,WeatherDisplay:10.37,2013-06-07 14:17:00,
2013-06-07 10:22:00,63.3,58.0,29.84,SE,146,2.3,2.3,83,0.00,CLR,,0.40,WeatherDisplay:10.37,2013-06-07 14:22:00,
2013-06-07 10:27:00,63.4,58.1,29.84,SE,146,0.0,0.0,83,0.00,CLR,,0.40,WeatherDisplay:10.37,2013-06-07 14:27:00,
2013-06-07 10:32:00,63.5,58.2,29.83,SSE,148,0.0,0.0,83,0.00,CLR,,0.40,WeatherDisplay:10.37,2013-06-07 14:32:00,
2013-06-07 10:37:00,63.5,58.6,29.84,SSE,148,0.0,0.0,84,0.00,CLR,,0.40,WeatherDisplay:10.37,2013-06-07 14:37:00,
2013-06-07 10:42:00,63.6,58.7,29.84,NNE,25,0.0,0.0,84,0.00,CLR,,0.40,WeatherDisplay:10.37,2013-06-07 14:42:00,
2013-06-07 10:47:00,63.6,58.7,29.84,SSE,153,0.0,0.0,84,0.00,CLR,,0.40,WeatherDisplay:10.37,2013-06-07 14:47:00,
2013-06-07 10:52:00,63.7,58.8,29.84,SSE,153,0.0,0.0,84,0.00,CLR,,0.40,WeatherDisplay:10.37,2013-06-07 14:52:00,
2013-06-07 10:57:00,63.8,58.9,29.84,SW,216,0.0,0.0,84,0.00,CLR,,0.40,WeatherDisplay:10.37,2013-06-07 14:57:00,
2013-06-07 11:02:00,63.8,59.2,29.84,SSE,148,0.0,0.0,85,0.00,CLR,,0.40,WeatherDisplay:10.37,2013-06-07 15:02:00,
2013-06-07 11:07:00,63.9,59.3,29.84,SSW,193,0.0,0.0,85,0.00,CLR,,0.40,WeatherDisplay:10.37,2013-06-07 15:07:00,
2013-06-07 11:12:00,63.8,59.5,29.84,NNE,32,2.3,2.3,86,0.00,CLR,,0.40,WeatherDisplay:10.37,2013-06-07 15:12:00,
2013-06-07 11:17:00,63.7,59.4,29.85,SSE,168,2.3,0.0,86,0.00,CLR,,0.40,WeatherDisplay:10.37,2013-06-07 15:17:00,
2013-06-07 11:22:00,63.8,59.5,29.85,SSE,167,0.0,0.0,86,0.00,CLR,,0.40,WeatherDisplay:10.37,2013-06-07 15:22:00,
2013-06-07 11:27:00,63.9,59.3,29.85,SSE,168,0.0,0.0,85,0.00,CLR,,0.40,WeatherDisplay:10.37,2013-06-07 15:27:00,
2013-06-07 11:33:00,64.0,59.7,29.84,SSE,167,0.0,0.0,86,0.00,CLR,,0.40,WeatherDisplay:10.37,2013-06-07 15:33:00,
2013-06-07 11:38:00,63.9,60.0,29.84,NW,314,0.0,0.0,87,0.00,CLR,,0.40,WeatherDisplay:10.37,2013-06-07 15:38:00,
2013-06-07 11:43:00,63.4,60.1,29.85,WSW,249,3.5,3.5,89,0.00,CLR,,0.40,WeatherDisplay:10.37,2013-06-07 15:43:00,
2013-06-07 11:48:00,62.5,59.2,29.84,NW,314,0.0,0.8,89,0.00,CLR,,0.40,WeatherDisplay:10.37,2013-06-07 15:48:00,
2013-06-07 11:53:00,62.1,58.5,29.84,NW,314,0.0,0.0,88,0.00,CLR,,0.40,WeatherDisplay:10.37,2013-06-07 15:53:00,
2013-06-07 11:58:00,62.0,58.1,29.84,SE,136,1.1,0.0,87,0.00,CLR,,0.40,WeatherDisplay:10.37,2013-06-07 15:58:00,
2013-06-07 12:03:00,61.8,57.9,29.84,NNE,33,1.1,1.1,87,0.00,CLR,,0.40,WeatherDisplay:10.37,2013-06-07 16:03:00,
2013-06-07 12:08:00,61.6,57.7,29.84,NW,321,3.0,3.0,87,0.01,RA,,0.41,WeatherDisplay:10.37,2013-06-07 16:08:00,
2013-06-07 12:13:00,61.1,57.5,29.84,NW,325,2.3,2.3,88,0.01,RA,,0.41,WeatherDisplay:10.37,2013-06-07 16:13:00,
2013-06-07 12:28:00,60.6,56.4,29.84,East,89,3.5,3.5,86,0.01,CLR,,0.41,WeatherDisplay:10.37,2013-06-07 16:28:00,
2013-06-07 12:42:00,60.8,55.9,29.84,East,88,0.0,0.0,84,0.01,CLR,,0.41,WeatherDisplay:10.37,2013-06-07 16:42:00,
2013-06-07 12:47:00,61.1,56.2,29.84,East,98,0.0,0.0,84,0.01,RA,,0.41,WeatherDisplay:10.37,2013-06-07 16:47:00,
2013-06-07 12:52:00,61.1,56.2,29.83,NW,319,2.0,2.0,84,0.01,RA,,0.41,WeatherDisplay:10.37,2013-06-07 16:52:00,
2013-06-07 12:57:00,61.1,56.2,29.83,ESE,120,1.1,0.0,84,0.01,CLR,,0.41,WeatherDisplay:10.37,2013-06-07 16:57:00,
2013-06-07 13:02:00,61.1,56.6,29.83,East,101,1.1,1.1,85,0.01,CLR,,0.41,WeatherDisplay:10.37,2013-06-07 17:02:00,
2013-06-07 13:07:00,61.1,56.2,29.83,West,260,0.0,0.0,84,0.02,RA,,0.42,WeatherDisplay:10.37,2013-06-07 17:07:00,
2013-06-07 13:12:00,61.0,56.5,29.83,ESE,118,2.3,2.3,85,0.02,RA,,0.42,WeatherDisplay:10.37,2013-06-07 17:12:00,
2013-06-07 13:21:00,61.0,56.5,29.83,NW,316,3.0,3.0,85,0.01,CLR,,0.42,WeatherDisplay:10.37,2013-06-07 17:21:00,
2013-06-07 13:26:00,60.9,56.4,29.83,WSW,250,0.0,0.0,85,0.01,CLR,,0.42,WeatherDisplay:10.37,2013-06-07 17:26:00,
2013-06-07 13:31:00,60.9,56.0,29.83,NE,37,0.0,0.0,84,0.02,RA,,0.43,WeatherDisplay:10.37,2013-06-07 17:31:00,
2013-06-07 13:36:00,61.1,56.2,29.83,WNW,290,0.0,0.0,84,0.02,RA,,0.43,WeatherDisplay:10.37,2013-06-07 17:36:00,
2013-06-07 13:41:00,61.0,56.1,29.83,ENE,57,1.1,1.1,84,0.02,CLR,,0.43,WeatherDisplay:10.37,2013-06-07 17:41:00,
2013-06-07 13:46:00,61.0,56.1,29.82,ESE,107,1.1,1.1,84,0.02,CLR,,0.43,WeatherDisplay:10.37,2013-06-07 17:46:00,
2013-06-07 13:51:00,61.1,56.2,29.82,NNW,340,1.1,1.1,84,0.02,CLR,,0.43,WeatherDisplay:10.37,2013-06-07 17:51:00,
2013-06-07 13:56:00,61.1,56.2,29.82,East,89,2.3,2.3,84,0.03,RA,,0.44,WeatherDisplay:10.37,2013-06-07 17:56:00,
2013-06-07 14:01:00,61.0,56.1,29.82,East,91,1.1,0.0,84,0.03,RA,,0.44,WeatherDisplay:10.37,2013-06-07 18:01:00,
2013-06-07 14:06:00,60.9,56.0,29.82,East,79,1.1,1.1,84,0.03,CLR,,0.44,WeatherDisplay:10.37,2013-06-07 18:06:00,
2013-06-07 14:11:00,60.9,56.0,29.82,WNW,284,1.1,0.0,84,0.02,CLR,,0.44,WeatherDisplay:10.37,2013-06-07 18:11:00,
2013-06-07 14:16:00,61.0,56.1,29.82,NNW,341,0.0,0.0,84,0.02,CLR,,0.44,WeatherDisplay:10.37,2013-06-07 18:16:00,
2013-06-07 14:21:00,61.0,56.1,29.82,NNE,12,2.3,2.3,84,0.02,CLR,,0.45,WeatherDisplay:10.37,2013-06-07 18:21:00,
2013-06-07 14:26:00,60.8,55.9,29.82,NW,312,3.5,3.5,84,0.03,RA,,0.45,WeatherDisplay:10.37,2013-06-07 18:26:00,
2013-06-07 14:31:00,60.7,55.8,29.82,West,269,0.0,0.0,84,0.02,RA,,0.45,WeatherDisplay:10.37,2013-06-07 18:31:00,
2013-06-07 14:36:00,60.7,55.8,29.82,West,276,2.3,2.3,84,0.02,CLR,,0.45,WeatherDisplay:10.37,2013-06-07 18:36:00,
2013-06-07 14:41:00,60.7,55.8,29.82,East,79,1.0,1.0,84,0.02,CLR,,0.45,WeatherDisplay:10.37,2013-06-07 18:41:00,
2013-06-07 14:46:00,60.7,55.8,29.82,South,181,0.0,0.0,84,0.02,CLR,,0.45,WeatherDisplay:10.37,2013-06-07 18:46:00,
2013-06-07 14:51:00,60.6,55.7,29.82,NNW,337,1.0,1.0,84,0.02,CLR,,0.45,WeatherDisplay:10.37,2013-06-07 18:51:00,
2013-06-07 14:56:00,60.6,55.7,29.82,NNW,340,0.0,0.0,84,0.01,CLR,,0.45,WeatherDisplay:10.37,2013-06-07 18:56:00,
2013-06-07 15:01:00,60.6,55.7,29.82,ESE,121,2.0,2.0,84,0.02,RA,,0.46,WeatherDisplay:10.37,2013-06-07 19:01:00,
2013-06-07 15:06:00,60.5,55.6,29.82,SE,131,0.0,0.0,84,0.02,RA,,0.46,WeatherDisplay:10.37,2013-06-07 19:06:00,
2013-06-07 15:11:00,60.5,55.6,29.82,NE,49,2.3,2.3,84,0.02,CLR,,0.46,WeatherDisplay:10.37,2013-06-07 19:11:00,
2013-06-07 15:17:00,60.5,55.6,29.82,ENE,66,1.1,1.1,84,0.02,CLR,,0.46,WeatherDisplay:10.37,2013-06-07 19:17:00,
2013-06-07 15:22:00,60.5,55.6,29.82,NW,314,0.0,0.0,84,0.01,CLR,,0.46,WeatherDisplay:10.37,2013-06-07 19:22:00,
2013-06-07 15:27:00,60.5,55.6,29.81,NE,42,0.0,0.0,84,0.01,CLR,,0.46,WeatherDisplay:10.37,2013-06-07 19:27:00,
2013-06-07 15:33:00,60.5,55.6,29.82,NW,311,1.1,1.1,84,0.01,CLR,,0.46,WeatherDisplay:10.37,2013-06-07 19:33:00,
2013-06-07 15:38:00,60.5,55.3,29.81,SW,233,2.3,2.3,83,0.01,CLR,,0.46,WeatherDisplay:10.37,2013-06-07 19:38:00,
2013-06-07 15:43:00,60.6,55.4,29.81,North,4,1.0,1.0,83,0.01,CLR,,0.46,WeatherDisplay:10.37,2013-06-07 19:43:00,
2013-06-07 15:48:00,60.6,55.7,29.81,NNE,14,1.1,1.1,84,0.01,CLR,,0.46,WeatherDisplay:10.37,2013-06-07 19:48:00,
2013-06-07 15:53:00,60.7,55.5,29.81,NNE,18,0.0,0.0,83,0.01,CLR,,0.46,WeatherDisplay:10.37,2013-06-07 19:53:00,
2013-06-07 15:58:00,60.5,55.6,29.80,NNW,343,1.1,1.1,84,0.00,CLR,,0.46,WeatherDisplay:10.37,2013-06-07 19:58:00,
2013-06-07 16:03:00,60.4,55.5,29.80,NNE,30,0.0,0.0,84,0.00,CLR,,0.46,WeatherDisplay:10.37,2013-06-07 20:03:00,
2013-06-07 16:08:00,60.2,55.3,29.81,NNE,33,3.5,3.5,84,0.00,CLR,,0.46,WeatherDisplay:10.37,2013-06-07 20:08:00,
2013-06-07 16:13:00,60.2,55.3,29.81,West,269,0.0,0.0,84,0.00,CLR,,0.47,WeatherDisplay:10.37,2013-06-07 20:13:00,
2013-06-07 16:18:00,60.2,55.0,29.81,NNE,17,0.0,0.0,83,0.01,RA,,0.47,WeatherDisplay:10.37,2013-06-07 20:18:00,
2013-06-07 16:23:00,60.0,55.2,29.80,NW,317,2.3,2.3,84,0.01,RA,,0.47,WeatherDisplay:10.37,2013-06-07 20:23:00,
2013-06-07 16:28:00,60.0,55.2,29.81,WNW,283,0.0,0.0,84,0.01,CLR,,0.47,WeatherDisplay:10.37,2013-06-07 20:28:00,
2013-06-07 16:33:00,60.0,54.8,29.80,SE,127,2.0,2.0,83,0.01,CLR,,0.47,WeatherDisplay:10.37,2013-06-07 20:33:00,
2013-06-07 16:39:00,60.0,54.8,29.80,NNE,22,2.0,2.0,83,0.01,CLR,,0.47,WeatherDisplay:10.37,2013-06-07 20:39:00,
2013-06-07 16:44:00,59.9,55.1,29.80,East,90,0.0,0.0,84,0.01,CLR,,0.47,WeatherDisplay:10.37,2013-06-07 20:44:00,
2013-06-07 16:49:00,59.9,54.7,29.80,ENE,76,2.3,2.3,83,0.01,CLR,,0.47,WeatherDisplay:10.37,2013-06-07 20:49:00,
2013-06-07 16:54:00,59.9,55.1,29.80,ENE,72,2.3,2.3,84,0.01,CLR,,0.47,WeatherDisplay:10.37,2013-06-07 20:54:00,
2013-06-07 17:00:00,59.9,54.7,29.80,NE,40,3.0,3.0,83,0.01,CLR,,0.47,WeatherDisplay:10.37,2013-06-07 21:00:00,
2013-06-07 17:05:00,59.9,54.7,29.80,East,86,1.1,1.1,83,0.01,CLR,,0.47,WeatherDisplay:10.37,2013-06-07 21:05:00,
2013-06-07 17:10:00,59.9,54.7,29.80,NNW,342,0.0,0.0,83,0.01,CLR,,0.47,WeatherDisplay:10.37,2013-06-07 21:10:00,
2013-06-07 17:15:00,60.0,54.8,29.80,NNW,343,0.0,0.0,83,0.00,CLR,,0.47,WeatherDisplay:10.37,2013-06-07 21:15:00,
2013-06-07 17:20:00,60.0,54.8,29.80,NNE,21,0.0,0.0,83,0.00,CLR,,0.47,WeatherDisplay:10.37,2013-06-07 21:20:00,
2013-06-07 17:25:00,60.0,54.8,29.80,NNW,342,1.0,1.0,83,0.00,CLR,,0.47,WeatherDisplay:10.37,2013-06-07 21:25:00,
2013-06-07 17:30:00,60.0,54.8,29.80,East,84,0.0,0.0,83,0.00,CLR,,0.47,WeatherDisplay:10.37,2013-06-07 21:30:00,
2013-06-07 17:35:00,60.1,54.9,29.80,NNE,29,0.0,0.0,83,0.00,CLR,,0.47,WeatherDisplay:10.37,2013-06-07 21:35:00,
2013-06-07 17:40:00,60.1,54.9,29.80,East,79,2.0,2.0,83,0.00,CLR,,0.47,WeatherDisplay:10.37,2013-06-07 21:40:00,
2013-06-07 17:46:00,60.1,54.9,29.79,NNE,22,0.0,0.0,83,0.01,RA,,0.48,WeatherDisplay:10.37,2013-06-07 21:46:00,
2013-06-07 17:51:00,60.1,54.9,29.79,NNE,23,0.0,0.0,83,0.01,RA,,0.48,WeatherDisplay:10.37,2013-06-07 21:51:00,
2013-06-07 17:56:00,60.1,54.9,29.79,NW,310,0.0,0.2,83,0.01,CLR,,0.48,WeatherDisplay:10.37,2013-06-07 21:56:00,
2013-06-07 18:02:00,60.2,55.0,29.78,NE,43,0.0,0.0,83,0.01,CLR,,0.48,WeatherDisplay:10.37,2013-06-07 22:02:00,
2013-06-07 18:07:00,60.2,55.0,29.79,NW,304,2.3,0.0,83,0.01,,,0.48,WeatherDisplay:10.37,2013-06-07 22:07:00,
2013-06-07 18:12:00,60.2,55.0,29.79,NNE,23,1.0,1.0,83,0.01,,,0.48,WeatherDisplay:10.37,2013-06-07 22:12:00,
2013-06-07 18:17:00,60.2,55.0,29.78,West,280,0.0,0.0,83,0.01,,,0.48,WeatherDisplay:10.37,2013-06-07 22:17:00,
2013-06-07 18:22:00,60.3,55.1,29.79,West,263,0.0,0.0,83,0.01,,,0.48,WeatherDisplay:10.37,2013-06-07 22:22:00,
2013-06-07 18:27:00,60.3,55.1,29.79,East,88,0.0,0.0,83,0.01,,,0.48,WeatherDisplay:10.37,2013-06-07 22:27:00,
2013-06-07 18:32:00,60.4,55.2,29.79,NE,46,1.0,1.0,83,0.01,,,0.48,WeatherDisplay:10.37,2013-06-07 22:32:00,
2013-06-07 18:37:00,60.4,55.2,29.79,ENE,58,0.0,0.0,83,0.01,,,0.48,WeatherDisplay:10.37,2013-06-07 22:37:00,
2013-06-07 18:42:00,60.4,55.2,29.79,ENE,67,0.0,0.0,83,0.01,,,0.48,WeatherDisplay:10.37,2013-06-07 22:42:00,
2013-06-07 18:47:00,60.5,55.3,29.79,WNW,301,1.1,1.1,83,0.00,,,0.48,WeatherDisplay:10.37,2013-06-07 22:47:00,
2013-06-07 18:52:00,60.5,55.3,29.79,SE,132,0.0,0.0,83,0.00,,,0.48,WeatherDisplay:10.37,2013-06-07 22:52:00,
2013-06-07 18:57:00,60.4,55.2,29.79,SE,132,0.0,0.0,83,0.00,,,0.48,WeatherDisplay:10.37,2013-06-07 22:57:00,
2013-06-07 19:02:00,60.5,55.3,29.79,SSW,198,0.0,0.0,83,0.00,,,0.48,WeatherDisplay:10.37,2013-06-07 23:02:00,
2013-06-07 19:07:00,60.5,55.3,29.79,SW,222,0.0,0.0,83,0.00,,,0.48,WeatherDisplay:10.37,2013-06-07 23:07:00,
2013-06-07 19:13:00,60.4,55.2,29.79,SE,124,0.0,0.0,83,0.00,,,0.48,WeatherDisplay:10.37,2013-06-07 23:13:00,
2013-06-07 19:18:00,60.4,55.2,29.80,ESE,122,0.0,0.0,83,0.00,,,0.48,WeatherDisplay:10.37,2013-06-07 23:18:00,
2013-06-07 19:23:00,60.3,55.1,29.79,NE,56,0.0,0.0,83,0.00,,,0.48,WeatherDisplay:10.37,2013-06-07 23:23:00,
2013-06-07 19:28:00,60.3,55.1,29.79,ESE,113,0.0,0.0,83,0.00,,,0.48,WeatherDisplay:10.37,2013-06-07 23:28:00,
2013-06-07 19:34:00,60.3,55.1,29.79,East,90,0.0,0.0,83,0.00,,,0.48,WeatherDisplay:10.37,2013-06-07 23:34:00,
2013-06-07 19:39:00,60.4,55.2,29.79,East,91,0.0,0.0,83,0.00,,,0.48,WeatherDisplay:10.37,2013-06-07 23:39:00,
2013-06-07 19:44:00,60.4,55.2,29.79,East,97,0.0,0.0,83,0.00,,,0.48,WeatherDisplay:10.37,2013-06-07 23:44:00,
2013-06-07 19:49:00,60.2,55.0,29.79,East,84,3.5,3.5,83,0.00,,,0.48,WeatherDisplay:10.37,2013-06-07 23:49:00,
2013-06-07 19:54:00,60.2,55.0,29.79,East,84,0.0,0.0,83,0.00,,,0.48,WeatherDisplay:10.37,2013-06-07 23:54:00,
2013-06-07 19:59:00,60.1,54.9,29.79,ENE,57,1.1,0.0,83,0.00,,,0.48,WeatherDisplay:10.37,2013-06-07 23:59:00,
2013-06-07 20:04:00,60.1,54.9,29.79,NNE,22,0.0,0.0,83,0.00,,,0.48,WeatherDisplay:10.37,2013-06-08 00:04:00,
2013-06-07 20:09:00,60.0,54.8,29.79,SSE,166,0.0,0.0,83,0.00,,,0.48,WeatherDisplay:10.37,2013-06-08 00:09:00,
2013-06-07 20:14:00,60.0,54.8,29.79,SSE,166,0.0,0.0,83,0.00,,,0.48,WeatherDisplay:10.37,2013-06-08 00:14:00,
2013-06-07 20:19:00,59.9,54.7,29.79,SE,134,0.0,0.0,83,0.00,,,0.48,WeatherDisplay:10.37,2013-06-08 00:19:00,
2013-06-07 20:24:00,59.9,54.7,29.80,SE,134,0.0,0.0,83,0.00,,,0.48,WeatherDisplay:10.37,2013-06-08 00:24:00,
2013-06-07 20:29:00,59.9,54.7,29.79,SE,134,0.0,0.0,83,0.00,,,0.48,WeatherDisplay:10.37,2013-06-08 00:29:00,
2013-06-07 20:35:00,59.8,54.6,29.79,ESE,122,0.0,0.0,83,0.00,,,0.48,WeatherDisplay:10.37,2013-06-08 00:35:00,
2013-06-07 20:40:00,59.8,54.6,29.79,ESE,122,0.0,0.0,83,0.00,,,0.48,WeatherDisplay:10.37,2013-06-08 00:40:00,
2013-06-07 20:45:00,59.7,54.5,29.79,ESE,122,0.0,0.0,83,0.00,,,0.48,WeatherDisplay:10.37,2013-06-08 00:45:00,
2013-06-07 20:50:00,59.6,54.4,29.79,ESE,122,0.0,0.0,83,0.00,,,0.48,WeatherDisplay:10.37,2013-06-08 00:50:00,
2013-06-07 20:55:00,59.5,54.7,29.79,NNE,14,0.0,0.0,84,0.00,,,0.48,WeatherDisplay:10.37,2013-06-08 00:55:00,
2013-06-07 21:01:00,59.4,54.6,29.79,NNE,17,0.0,0.0,84,0.00,,,0.48,WeatherDisplay:10.37,2013-06-08 01:01:00,
2013-06-07 21:06:00,59.3,54.5,29.79,NNE,18,0.0,0.0,84,0.00,,,0.48,WeatherDisplay:10.37,2013-06-08 01:06:00,
2013-06-07 21:11:00,59.3,54.1,29.79,NNE,17,0.0,0.0,83,0.00,,,0.48,WeatherDisplay:10.37,2013-06-08 01:11:00,
2013-06-07 21:16:00,59.3,54.1,29.79,NNE,17,0.0,0.0,83,0.00,,,0.48,WeatherDisplay:10.37,2013-06-08 01:16:00,
2013-06-07 21:21:00,59.2,54.0,29.79,NNE,17,0.0,0.0,83,0.00,,,0.48,WeatherDisplay:10.37,2013-06-08 01:21:00,
2013-06-07 21:26:00,59.2,54.4,29.79,NNE,17,0.0,0.0,84,0.00,,,0.48,WeatherDisplay:10.37,2013-06-08 01:26:00,
2013-06-07 21:31:00,59.1,54.3,29.79,NNE,17,0.0,0.0,84,0.00,,,0.48,WeatherDisplay:10.37,2013-06-08 01:31:00,
2013-06-07 21:36:00,59.0,54.2,29.79,NNE,18,0.0,0.0,84,0.00,,,0.48,WeatherDisplay:10.37,2013-06-08 01:36:00,
2013-06-07 21:42:00,59.0,54.2,29.79,NNE,17,0.0,0.0,84,0.00,,,0.48,WeatherDisplay:10.37,2013-06-08 01:42:00,
2013-06-07 21:47:00,58.9,54.1,29.80,NNW,336,0.0,0.0,84,0.00,,,0.48,WeatherDisplay:10.37,2013-06-08 01:47:00,
2013-06-07 21:52:00,58.8,54.0,29.80,NNW,336,0.0,0.0,84,0.00,,,0.48,WeatherDisplay:10.37,2013-06-08 01:52:00,
2013-06-07 21:57:00,58.8,54.0,29.80,NNW,337,0.0,0.0,84,0.00,,,0.48,WeatherDisplay:10.37,2013-06-08 01:57:00,
2013-06-07 22:02:00,58.7,53.9,29.80,NNW,337,0.0,0.0,84,0.00,,,0.48,WeatherDisplay:10.37,2013-06-08 02:02:00,
2013-06-07 22:07:00,58.6,53.8,29.80,NNW,337,0.0,0.0,84,0.00,,,0.48,WeatherDisplay:10.37,2013-06-08 02:07:00,
2013-06-07 22:12:00,58.6,53.8,29.80,NNW,338,0.0,0.0,84,0.00,,,0.48,WeatherDisplay:10.37,2013-06-08 02:12:00,
2013-06-07 22:17:00,58.6,53.8,29.80,NNW,338,0.0,0.0,84,0.00,,,0.48,WeatherDisplay:10.37,2013-06-08 02:17:00,
2013-06-07 22:23:00,58.6,53.8,29.80,NNW,337,0.0,0.0,84,0.00,,,0.48,WeatherDisplay:10.37,2013-06-08 02:23:00,
2013-06-07 22:28:00,58.5,53.7,29.80,NNW,337,0.0,0.0,84,0.00,,,0.48,WeatherDisplay:10.37,2013-06-08 02:28:00,
2013-06-07 22:33:00,58.5,53.7,29.80,NNW,337,0.0,0.0,84,0.00,,,0.48,WeatherDisplay:10.37,2013-06-08 02:33:00,
2013-06-07 22:38:00,58.4,53.6,29.80,North,357,0.0,0.0,84,0.00,,,0.48,WeatherDisplay:10.37,2013-06-08 02:38:00,
2013-06-07 22:43:00,58.4,53.6,29.80,NNE,25,1.1,0.0,84,0.00,,,0.48,WeatherDisplay:10.37,2013-06-08 02:43:00,
2013-06-07 22:48:00,58.2,53.4,29.80,WNW,287,0.0,0.0,84,0.00,,,0.48,WeatherDisplay:10.37,2013-06-08 02:48:00,
2013-06-07 22:53:00,58.2,53.4,29.79,WNW,287,0.0,0.0,84,0.00,,,0.48,WeatherDisplay:10.37,2013-06-08 02:53:00,
2013-06-07 22:58:00,58.2,53.4,29.79,WNW,287,0.0,0.0,84,0.00,,,0.48,WeatherDisplay:10.37,2013-06-08 02:58:00,
2013-06-07 23:04:00,58.2,53.4,29.79,WNW,287,0.0,0.0,84,0.00,,,0.48,WeatherDisplay:10.37,2013-06-08 03:04:00,
2013-06-07 23:09:00,58.2,53.4,29.79,WNW,287,0.0,0.0,84,0.00,,,0.48,WeatherDisplay:10.37,2013-06-08 03:09:00,
2013-06-07 23:14:00,58.2,53.4,29.79,WNW,299,0.0,0.0,84,0.00,,,0.48,WeatherDisplay:10.37,2013-06-08 03:14:00,
2013-06-07 23:19:00,58.2,53.4,29.79,NNW,345,0.0,0.0,84,0.00,,,0.48,WeatherDisplay:10.37,2013-06-08 03:19:00,
2013-06-07 23:24:00,58.1,53.3,29.79,North,359,0.0,0.0,84,0.00,,,0.48,WeatherDisplay:10.37,2013-06-08 03:24:00,
2013-06-07 23:29:00,58.1,53.3,29.79,North,359,0.0,0.0,84,0.00,,,0.48,WeatherDisplay:10.37,2013-06-08 03:29:00,
2013-06-07 23:34:00,58.1,53.3,29.80,North,359,0.0,0.0,84,0.00,,,0.48,WeatherDisplay:10.37,2013-06-08 03:34:00,
2013-06-07 23:40:00,58.1,53.3,29.80,North,359,0.0,0.0,84,0.00,,,0.48,WeatherDisplay:10.37,2013-06-08 03:40:00,
2013-06-07 23:45:00,58.1,53.3,29.80,North,358,0.0,0.0,84,0.00,,,0.48,WeatherDisplay:10.37,2013-06-08 03:45:00,
2013-06-07 23:50:00,58.1,53.3,29.80,North,359,0.0,0.0,84,0.00,,,0.48,WeatherDisplay:10.37,2013-06-08 03:50:00,
2013-06-07 23:55:00,58.1,53.3,29.80,North,359,0.0,0.0,84,0.00,,,0.48,WeatherDisplay:10.37,2013-06-08 03:55:00,